Temperature
19 19 19 19 19 20 20 20 20 20 20 20 20 20 20 19 19 19 19 19 19 19 19 19 19 19 19 19 19 19 19 19 19 19 19 19 19 19 19 19 19 19 19
19 19 19 19 19 20 20 20 20 20 20 20 20 20 20 19 19 19 19 19 19 19 19 19 19 19 19 19 19 19 19 19 18 18 18 18 18 18 18 18 18 19 19
19 19 19 19 19 19 20 20 20 20 20 20 20 20 20 19 19 19 19 19 19 19 19 19 19 19 19 19 19 19 19 18 18 18 18 18 18 18 18 18 18 18 18
19 19 19 19 19 19 19 19 20 20 20 20 20 20 19 19 19 19 19 19 19 19 19 19 19 19 19 19 19 18 18 18 18 18 18 18 18 18 18 18 18 18 18
19 19 19 19 19 19 19 19 19 19 19 19 19 19 19 19 19 19 19 19 19 19 19 19 19 19 19 19 19 18 18 18 18 18 18 18 18 18 18 18 18 18 18
19 19 19 19 19 19 19 19 19 19 19 19 19 19 19 19 19 19 19 19 19 19 19 19 19 19 19 19 18 18 18 18 18 18 18 18 18 18 18 18 18 18 18
19 18 18 18 18 18 18 18 18 18 18 18 18 18 19 19 19 19 19 19 19 19 19 19 19 19 19 19 18 18 18 18 18 18 18 18 18 18 18 18 18 18 18
18 18 18 18 18 18 18 17 17 17 18 18 18 18 18 18 18 18 18 18 18 18 18 18 19 18 19 19 18 18 18 18 18 18 18 18 18 18 18 18 18 18 18
18 18 18 18 17 17 17 17 17 17 17 17 17 17 17 17 18 18 18 18 18 18 18 18 19 19 19 19 18 18 18 18 18 18 18 18 18 18 18 18 18 18 18
18 18 18 17 17 17 16 16 16 16 16 16 16 17 17 17 17 17 18 18 18 18 18 18 18 19 19 18 18 18 18 18 18 18 18 18 18 18 18 18 18 18 18
18 17 17 17 17 16 16 16 16 16 16 16 16 16 16 16 17 17 17 17 18 18 18 18 18 18 18 18 18 18 18 18 18 18 18 18 18 18 18 18 18 18 18
18 17 17 16 16 16 16 16 16 16 16 16 15 16 16 16 16 16 17 17 17 17 17 18 18 18 18 18 18 18 18 18 18 18 18 18 18 18 18 18 18 18 18
17 17 17 16 16 16 15 15 15 15 15 15 15 15 15 15 16 16 16 16 17 17 17 17 17 18 18 18 18 18 18 18 18 18 18 18 18 18 18 18 18 18 18
17 17 16 16 15 15 15 15 15 15 15 15 15 15 15 15 15 15 16 16 16 16 17 17 17 17 18 18 18 18 18 18 18 18 18 18 18 18 18 18 18 18 18
17 16 16 15 15 15 15 15 15 15 15 15 15 15 15 15 15 15 15 16 16 16 16 16 17 17 17 18 18 18 18 18 18 18 18 18 18 18 18 18 18 18 18
17 16 16 15 15 15 14 14 14 14 14 14 15 15 15 15 15 15 15 15 15 16 16 16 16 17 17 17 17 18 18 18 18 18 18 18 18 18 18 18 18 18 18
17 16 15 15 15 14 14 14 14 14 14 14 14 14 14 15 15 15 15 15 15 15 16 16 16 16 16 17 17 17 17 17 18 18 18 18 18 18 18 18 18 18 18
16 16 15 15 14 14 14 14 14 14 14 14 14 14 14 14 14 15 15 15 15 15 15 15 16 16 16 16 17 17 17 17 17 18 18 18 18 18 18 18 18 18 18
16 16 15 15 14 14 14 14 14 14 14 14 14 14 14 14 14 14 14 14 15 15 15 15 15 16 16 16 16 17 17 17 17 17 17 17 17 18 18 18 18 18 18
16 16 15 14 14 14 14 14 13 13 13 13 13 13 13 14 14 14 14 14 14 14 15 15 15 15 15 16 16 16 17 17 17 17 17 17 17 18 18 18 18 18 18
16 15 15 14 14 14 13 13 13 13 13 13 13 13 13 13 13 14 14 14 14 14 14 14 15 15 15 15 16 16 16 17 17 17 17 17 17 17 18 18 18 18 18
16 15 15 14 14 13 13 13 13 13 13 13 13 13 13 13 13 13 13 13 14 14 14 14 14 15 15 15 15 15 16 16 17 17 17 17 17 17 17 18 18 18 18
16 15 15 14 14 13 13 13 13 13 13 13 13 13 12 12 13 13 13 13 13 13 13 14 14 14 14 14 14 14 15 16 16 17 17 17 17 17 17 17 18 18 18
16 15 15 14 13 13 13 13 13 13 12 12 12 12 12 12 12 12 13 13 13 13 13 13 13 13 14 14 14 14 14 15 15 16 17 17 17 17 17 17 17 18 18
16 15 15 14 14 13 13 13 13 13 12 12 12 12 12 12 12 12 12 12 13 13 13 13 13 13 13 14 14 14 14 14 14 15 15 16 17 17 17 17 17 17 18
16 15 15 14 14 13 13 13 13 13 12 12 12 12 12 12 12 12 12 12 12 12 12 13 13 13 13 13 13 13 14 14 14 14 15 15 16 17 17 17 17 17 17
Wind_Speed
4 7 12 11 10 9 8 8 7 7 7 6 6 5 5 5 5 5 5 5 4 4 5 5 5 5 6 6 6 5 6 6 5 5 6 6 6 7 7 8 9 8 10
7 9 12 11 10 9 8 7 7 6 6 5 5 4 4 3 3 3 3 3 3 3 3 3 3 4 4 4 4 4 4 4 4 3 3 4 5 6 7 8 9 8 10
8 10 11 11 9 8 7 6 6 5 5 5 4 4 3 3 3 3 2 2 1 1 2 2 2 2 2 3 3 3 3 4 3 3 1 2 3 6 7 8 9 9 9
8 9 9 10 9 7 6 6 5 5 5 5 5 4 4 4 4 3 3 3 2 2 2 2 2 1 1 1 1 2 2 3 3 3 1 3 4 6 7 8 8 9 9
6 7 8 8 7 6 5 4 4 4 4 5 5 5 5 5 5 5 5 4 4 3 3 3 2 2 1 1 1 2 2 3 3 3 1 3 5 7 7 7 8 8 8
5 6 6 7 6 5 4 3 3 3 4 4 5 6 6 6 7 6 6 6 5 5 5 4 4 3 3 2 2 2 3 3 3 2 2 4 5 7 8 8 8 8 8
5 4 5 5 4 4 3 3 3 3 3 4 5 6 6 7 7 7 7 7 7 7 6 6 5 5 4 4 3 3 4 4 1 1 3 4 6 7 8 8 8 8 8
5 3 3 3 3 3 4 4 4 4 4 5 5 6 6 7 7 8 8 8 8 8 8 7 7 7 6 5 5 5 5 4 1 1 3 5 7 8 8 8 8 8 8
4 3 2 1 1 2 3 4 5 5 5 6 6 7 7 7 7 8 9 9 9 9 9 9 8 8 7 7 7 7 7 5 2 2 3 5 8 9 8 8 8 8 8
2 2 2 1 1 3 4 5 5 6 6 7 8 8 9 8 8 8 8 9 10 10 10 10 10 9 9 8 8 8 8 6 4 4 4 7 10 10 9 9 9 9 8
3 2 2 1 1 3 3 4 5 6 6 7 7 8 8 6 6 7 7 7 8 10 10 11 10 10 9 9 9 9 9 6 4 4 6 9 11 11 11 10 9 9 9
3 2 3 3 3 4 3 3 4 5 6 6 6 7 6 6 7 7 7 8 7 7 9 9 10 9 8 7 8 9 7 6 5 6 8 11 13 13 12 11 10 10 9
3 4 3 3 3 4 3 4 4 5 5 5 6 6 6 6 6 6 5 6 6 6 5 6 6 5 5 5 5 5 6 6 6 7 9 12 13 14 13 12 11 10 10
5 4 3 3 3 4 4 3 3 3 3 3 4 4 2 2 3 3 3 4 4 4 3 3 3 3 3 4 4 3 4 5 6 8 10 14 15 15 15 14 13 12 10
5 3 3 4 4 3 4 3 4 3 3 3 4 4 2 1 2 2 2 3 4 4 3 3 3 3 3 3 3 3 3 4 6 7 9 15 17 16 16 15 14 13 11
5 3 3 4 3 4 4 4 3 4 4 5 4 5 4 2 2 2 3 2 2 3 4 3 4 4 4 3 3 3 3 3 4 7 9 12 17 17 17 16 15 14 13
5 3 3 3 5 5 5 5 4 4 4 4 5 7 7 5 3 2 2 2 3 3 4 3 3 3 3 3 3 2 2 2 2 4 7 9 12 16 17 17 16 15 15
5 3 4 4 5 4 5 5 3 4 4 4 5 7 7 7 6 3 2 2 3 2 1 2 3 3 3 3 3 2 1 1 1 2 4 7 8 10 14 17 17 16 16
5 5 4 4 3 4 5 4 4 4 4 4 5 5 7 8 8 4 3 3 3 1 1 2 1 2 2 3 3 2 2 2 2 2 2 5 7 9 10 15 18 18 17
5 6 5 4 3 4 4 4 4 5 4 4 4 4 6 7 8 5 3 4 3 2 2 2 1 1 2 2 3 2 2 2 2 3 4 3 5 9 11 11 13 16 18
6 6 5 4 3 3 3 3 3 4 4 4 3 5 6 7 7 4 4 4 4 3 2 2 1 1 1 0 0 2 2 3 4 4 4 4 5 7 9 11 12 12 14
6 6 5 4 3 2 1 0 0 1 2 2 3 5 6 6 5 4 4 4 4 3 4 3 2 1 1 1 1 1 2 3 2 4 4 5 6 4 6 10 11 12 13
6 6 5 4 3 1 1 2 3 3 4 4 5 5 5 6 4 4 3 3 4 3 3 3 2 1 1 1 1 2 1 2 2 2 3 4 4 4 5 5 9 12 14
6 6 6 4 3 1 1 2 2 1 2 3 3 3 5 5 5 4 3 3 3 3 3 3 2 1 0 1 1 1 2 2 1 2 2 2 4 5 6 6 7 9 14
7 6 5 4 3 1 1 1 1 0 1 2 3 4 5 5 5 4 3 3 3 3 3 3 3 2 0 1 1 1 1 1 2 2 3 3 2 3 4 6 6 6 12
6 5 5 4 3 2 1 1 2 1 1 2 3 4 4 4 4 5 4 4 4 3 3 3 3 2 2 1 1 2 2 2 2 2 3 3 3 3 3 4 6 7 9
Wind_Direction
174 167 147 139 132 127 123 120 118 116 112 110 106 102 98 97 94 89 87 84 78 71 68 66 66 67 66 68 68 64 64 65 68 75 84 90 90 92 98 101 103 104 109
160 159 149 143 139 136 135 135 133 131 129 128 127 124 119 115 113 110 106 100 92 89 83 76 73 71 69 68 65 61 56 56 57 61 76 91 100 102 106 111 115 112 111
147 154 149 145 144 145 147 149 149 150 152 155 158 161 161 161 156 154 150 145 140 132 123 108 97 80 76 67 52 43 42 39 34 24 63 121 131 123 119 119 119 117 114
143 147 149 149 148 152 159 164 167 172 175 180 186 188 188 190 191 195 195 193 195 191 174 155 147 128 106 73 35 6 5 11 9 5 95 163 158 137 130 127 125 124 122
127 134 145 145 147 151 159 169 176 183 191 197 199 203 204 207 210 211 212 211 210 210 202 192 191 192 198 219 275 315 326 349 1 19 103 155 154 147 139 134 132 132 129
122 128 139 144 149 155 162 170 182 197 209 214 211 212 214 214 216 217 217 215 217 221 217 205 206 215 223 233 252 281 305 330 1 31 132 151 162 158 147 143 141 139 136
136 138 144 147 154 165 178 192 205 222 235 235 231 227 226 223 222 222 222 220 220 223 223 216 212 220 226 231 247 269 287 307 348 75 164 161 168 161 153 151 148 146 142
138 141 142 157 172 193 209 219 231 242 250 250 250 244 238 235 233 230 227 226 225 225 226 222 218 221 228 233 242 259 273 286 310 114 177 181 177 166 158 154 152 153 151
140 135 138 184 240 249 253 252 250 253 260 263 266 265 258 248 241 238 235 232 231 229 228 225 222 222 226 233 239 252 264 273 262 213 210 200 185 170 165 161 158 157 157
131 131 158 184 299 297 293 290 278 268 265 270 268 265 263 262 258 251 243 239 236 233 231 229 225 225 226 232 238 247 257 267 257 229 216 205 191 178 171 165 160 159 158
93 93 97 74 5 327 309 319 313 302 285 279 275 270 266 265 265 263 257 249 243 237 234 231 228 226 228 233 240 249 255 248 243 235 222 208 194 181 174 166 163 162 161
94 77 73 63 34 23 8 344 318 310 300 290 281 276 267 252 248 250 258 257 255 249 242 235 231 229 229 228 241 255 250 238 235 239 229 211 196 183 177 170 168 167 166
109 79 67 57 40 30 4 344 333 327 313 301 291 279 268 256 250 248 250 258 258 252 246 244 236 225 215 218 231 249 247 233 228 235 231 214 196 185 179 175 173 171 169
98 84 56 50 36 20 16 353 347 339 329 313 300 300 284 266 256 248 243 242 240 235 226 238 244 231 218 223 233 244 248 231 225 230 230 215 199 188 182 179 178 176 175
101 81 56 54 48 34 22 351 360 339 336 339 343 340 323 280 275 262 259 249 242 233 222 222 224 231 228 223 238 241 249 245 232 224 222 211 201 193 187 184 183 180 179
110 94 77 67 55 42 19 354 340 343 354 10 16 8 8 355 321 300 279 260 253 246 234 223 221 226 229 223 237 235 245 263 238 223 216 210 203 197 191 189 188 186 185
126 100 96 95 58 43 18 360 359 355 7 13 10 12 15 14 5 339 320 294 270 260 245 234 230 223 231 231 233 240 229 248 247 221 214 206 204 203 197 194 192 191 191
123 94 62 71 61 42 25 6 358 5 13 12 14 15 14 12 11 5 358 326 310 297 266 240 232 230 231 235 236 238 230 240 277 226 216 216 205 204 205 202 198 196 197
121 100 85 82 63 42 25 12 5 9 11 7 15 14 9 10 12 19 4 340 347 345 325 293 255 235 232 241 245 238 219 216 242 250 221 223 216 210 206 209 205 202 202
109 100 99 82 53 42 24 15 11 10 2 1 2 1 5 6 9 15 10 0 4 8 352 324 285 258 237 242 260 263 242 232 224 226 226 218 222 220 213 210 209 209 207
101 97 92 86 56 47 33 20 10 355 346 351 349 357 2 4 5 12 13 4 9 7 345 335 309 298 286 234 44 309 286 246 232 226 221 215 218 223 214 209 207 206 209
117 107 101 101 89 62 48 359 306 324 321 327 339 350 358 2 1 13 15 2 360 2 2 3 7 351 318 89 113 43 327 327 278 234 220 221 216 211 211 211 206 207 206
133 131 126 128 118 91 56 35 20 13 358 355 350 345 342 355 1 5 7 7 3 11 358 352 360 55 300 281 170 160 177 248 288 287 230 230 219 215 216 205 208 210 210
158 150 141 142 140 139 94 69 59 38 346 308 309 321 335 351 353 359 8 8 8 6 354 340 8 10 115 283 289 227 213 205 220 305 306 248 225 223 220 217 212 211 213
165 158 155 151 162 186 137 114 104 20 299 305 327 347 346 340 344 348 352 357 357 347 336 337 344 342 278 220 225 244 259 249 211 214 276 301 284 240 226 220 215 213 213
163 162 162 160 189 217 200 146 161 184 298 347 346 348 341 334 335 337 338 342 335 329 322 324 324 323 303 274 245 216 207 223 225 211 240 268 276 267 243 224 218 219 214
Height
1538 1539 1539 1540 1540 1540 1540 1540 1540 1540 1541 1541 1541 1541 1541 1541 1541 1540 1540 1540 1540 1540 1540 1540 1540 1539 1539 1539 1539 1539 1538 1538 1537 1537 1537 1537 1537 1537 1537 1537 1537 1537 1537
1538 1538 1539 1540 1540 1540 1540 1540 1540 1540 1540 1540 1540 1540 1540 1540 1540 1540 1540 1539 1539 1539 1539 1539 1539 1539 1539 1539 1539 1538 1538 1538 1538 1537 1537 1537 1537 1537 1537 1537 1537 1537 1538
1538 1539 1539 1540 1540 1540 1540 1539 1539 1539 1539 1539 1539 1539 1539 1539 1539 1538 1538 1538 1538 1538 1538 1538 1538 1538 1538 1538 1538 1538 1538 1538 1538 1537 1537 1537 1537 1537 1537 1537 1537 1538 1538
1538 1539 1539 1539 1539 1539 1539 1538 1538 1538 1538 1537 1537 1537 1537 1537 1537 1537 1537 1537 1537 1537 1537 1537 1537 1537 1537 1537 1538 1538 1538 1538 1537 1537 1537 1537 1537 1537 1537 1537 1538 1538 1538
1538 1539 1539 1539 1539 1538 1538 1537 1537 1536 1536 1536 1536 1536 1535 1535 1535 1535 1535 1535 1535 1535 1535 1535 1536 1536 1536 1536 1537 1537 1537 1537 1537 1537 1537 1537 1537 1537 1537 1537 1538 1538 1539
1539 1539 1538 1538 1538 1537 1536 1536 1535 1535 1534 1534 1534 1534 1534 1534 1534 1534 1534 1534 1534 1534 1534 1534 1534 1534 1535 1535 1536 1536 1536 1537 1537 1536 1537 1537 1537 1537 1537 1537 1537 1538 1539
1539 1538 1538 1537 1537 1536 1535 1534 1534 1533 1533 1532 1532 1532 1531 1531 1531 1531 1532 1532 1532 1532 1532 1532 1532 1533 1533 1534 1534 1535 1535 1536 1536 1536 1536 1536 1536 1537 1537 1537 1537 1538 1539
1539 1538 1537 1537 1536 1535 1534 1533 1532 1531 1531 1530 1529 1529 1529 1529 1529 1529 1529 1529 1529 1530 1530 1530 1531 1531 1531 1532 1533 1533 1534 1535 1535 1535 1536 1536 1536 1536 1537 1537 1537 1538 1538
1538 1537 1537 1536 1534 1533 1532 1531 1530 1529 1528 1527 1527 1527 1526 1526 1526 1526 1527 1527 1527 1527 1527 1528 1528 1529 1529 1530 1531 1532 1533 1533 1534 1535 1535 1535 1536 1536 1536 1537 1537 1538 1538
1538 1537 1536 1535 1533 1532 1531 1529 1528 1527 1526 1525 1524 1524 1524 1523 1523 1524 1524 1524 1524 1525 1525 1526 1526 1527 1528 1528 1529 1530 1531 1532 1533 1533 1534 1534 1535 1536 1536 1537 1537 1537 1538
1537 1536 1535 1533 1532 1530 1529 1528 1526 1525 1524 1523 1522 1521 1521 1520 1520 1520 1521 1521 1522 1522 1523 1523 1524 1525 1526 1526 1527 1528 1529 1530 1531 1532 1533 1534 1535 1535 1535 1536 1537 1537 1538
1536 1535 1533 1532 1530 1529 1527 1526 1525 1523 1522 1521 1520 1519 1518 1517 1517 1517 1518 1518 1519 1519 1520 1521 1521 1522 1523 1524 1525 1526 1527 1528 1529 1530 1532 1533 1534 1534 1535 1535 1536 1537 1537
1535 1533 1532 1530 1528 1527 1525 1524 1522 1521 1520 1519 1518 1517 1516 1515 1514 1514 1515 1515 1515 1516 1517 1518 1519 1520 1521 1522 1523 1524 1525 1526 1527 1529 1530 1531 1532 1533 1534 1535 1535 1536 1537
1533 1532 1530 1528 1527 1525 1523 1522 1520 1519 1518 1516 1515 1514 1513 1513 1512 1511 1512 1511 1512 1513 1514 1515 1516 1517 1519 1520 1521 1522 1523 1524 1525 1527 1528 1530 1531 1532 1533 1534 1535 1535 1536
1532 1530 1529 1527 1525 1523 1522 1520 1518 1517 1516 1514 1513 1512 1511 1510 1510 1509 1509 1509 1509 1510 1511 1512 1513 1514 1516 1517 1519 1520 1521 1522 1523 1525 1526 1528 1529 1531 1532 1533 1534 1535 1536
1530 1529 1527 1526 1524 1522 1520 1518 1516 1515 1514 1512 1511 1510 1509 1508 1507 1507 1506 1506 1506 1507 1508 1509 1510 1511 1513 1514 1516 1517 1519 1520 1521 1522 1524 1526 1528 1529 1530 1531 1533 1534 1535
1529 1528 1526 1525 1523 1521 1519 1517 1515 1514 1512 1511 1509 1508 1507 1506 1505 1505 1504 1504 1504 1505 1505 1506 1507 1508 1509 1511 1512 1514 1516 1517 1518 1520 1522 1524 1526 1527 1529 1530 1531 1532 1533
1528 1526 1525 1524 1522 1520 1518 1516 1514 1513 1511 1509 1508 1507 1505 1504 1504 1503 1502 1502 1502 1503 1503 1504 1504 1505 1506 1507 1509 1511 1513 1514 1516 1517 1519 1521 1523 1525 1527 1528 1530 1531 1532
1527 1525 1524 1523 1521 1519 1517 1515 1514 1512 1510 1509 1507 1505 1504 1503 1502 1501 1500 1500 1500 1500 1501 1501 1502 1502 1503 1504 1505 1507 1509 1511 1513 1514 1516 1518 1520 1523 1525 1527 1528 1529 1531
1526 1524 1523 1522 1520 1519 1517 1515 1513 1511 1510 1508 1506 1505 1503 1502 1501 1500 1499 1499 1498 1498 1498 1499 1499 1500 1501 1502 1503 1504 1506 1508 1509 1511 1513 1515 1517 1520 1522 1524 1526 1527 1529
1525 1524 1522 1521 1519 1518 1516 1514 1512 1511 1509 1508 1506 1504 1503 1502 1500 1499 1498 1497 1497 1497 1496 1496 1497 1497 1498 1499 1500 1501 1503 1504 1506 1508 1510 1512 1514 1517 1519 1521 1523 1525 1526
1524 1523 1522 1520 1519 1517 1515 1514 1512 1511 1509 1508 1506 1504 1503 1501 1500 1498 1497 1496 1495 1495 1495 1495 1495 1495 1496 1497 1498 1499 1500 1502 1502 1504 1506 1508 1511 1513 1515 1518 1520 1521 1523
1523 1522 1521 1520 1518 1517 1515 1514 1512 1511 1509 1508 1506 1504 1503 1501 1499 1498 1497 1495 1494 1494 1493 1493 1493 1493 1494 1495 1496 1498 1499 1499 1500 1501 1502 1504 1507 1509 1511 1513 1515 1518 1520
1522 1522 1521 1519 1518 1517 1515 1514 1512 1511 1509 1508 1506 1504 1503 1501 1499 1498 1496 1495 1494 1493 1492 1492 1492 1492 1492 1493 1494 1496 1497 1498 1499 1498 1500 1501 1503 1505 1507 1509 1511 1513 1516
1521 1521 1520 1519 1518 1517 1515 1514 1512 1511 1509 1508 1506 1504 1502 1501 1499 1497 1496 1494 1493 1492 1491 1491 1491 1491 1491 1491 1492 1493 1494 1495 1496 1497 1497 1498 1499 1501 1502 1505 1507 1509 1511
1520 1520 1519 1519 1518 1517 1515 1514 1512 1511 1509 1508 1506 1504 1502 1500 1499 1497 1495 1494 1493 1491 1490 1490 1489 1489 1489 1489 1490 1490 1491 1492 1493 1494 1495 1494 1495 1497 1498 1500 1502 1504 1507